Flag for Austria Weather past 2 weeks in Bruck an der Leitha, Lower Austria, Austria

Now
70 °F

Overcast.


Feels Like: 74 °F
Forecast: 60 / 73 °F
Wind: N/A

Location: Wien / Schwechat-Flughafen

Current Time: Sep 3, 2015 at 7:42:01 PM

Latest Report: Sep 3, 2015 at 7:00 PM


Visibility: 25 mi

Pressure: 29.85 "Hg

Humidity: 71%

Dew point: 60 °F

Location of Bruck an der LeithaLocation

Historic Weather in Bruck an der Leitha — Graph

°F

Bruck an der Leitha temperature yesterday

Maximum temperature yesterday: 79 °F (at 12:00 AM)
Minimum temperature yesterday: 63 °F (at 9:00 AM)
Average temperature yesterday: 70 °F

Past Weeks' High & Low Weather Summary

 TemperatureHumidityPressure
High93 °F (Aug 31, 3:00 PM)99% (Aug 28, 7:00 AM)30.24 "Hg (Aug 28, 7:00 AM)
Low51 °F (Aug 26, 5:00 AM)19% (Aug 31, 5:00 PM)29.70 "Hg (Sep 1, 8:00 PM)
Average70 °F67%30.02 "Hg
* Reported Aug 19 6:00 PM — Sep 3 6:00 PM, Bruck an der Leitha, Weather by CustomWeather, © 2015

Note: Actual official high and low records may vary slightly from our data, if they occured in-between our weather recording intervals... More about our weather records

Advertising

Bruck an der Leitha weather history for previous 24 hours

 ConditionsComfort  
Time TempWeatherWind HumidityBarometerVisibility
6:00 PM
Thu, Sep 3
72 °FOvercast.3 mph63%29.85 "Hg19 mi
5:00 PM71 °FOvercast.N/A56%29.88 "Hg19 mi
4:00 PM71 °FOvercast.N/A56%29.89 "Hg19 mi
3:00 PM70 °FOvercast.N/A56%29.91 "Hg19 mi
2:00 PM70 °FOvercast.N/A60%29.93 "Hg22 mi
1:00 PM68 °FOvercast.N/A64%29.95 "Hg13 mi
12:00 PM66 °FOvercast.N/A75%29.97 "Hg12 mi
11:00 AM63 °FOvercast.N/A76%29.98 "Hg14 mi
10:00 AM61 °FOvercast.N/A80%29.99 "Hg12 mi
9:00 AM59 °FOvercast.N/A85%30.00 "Hg19 mi
8:00 AM59 °FRain showers. Partly sunny.N/A86%30.00 "Hg7 mi
7:00 AM56 °FScattered clouds.N/A92%29.99 "Hg16 mi
6:00 AM56 °FPassing clouds.N/A91%30.00 "Hg8 mi
4:00 AM57 °FPassing clouds.5 mph87%30.00 "Hg28 mi
3:00 AM59 °FPassing clouds.5 mph86%30.01 "Hg22 mi
2:00 AM60 °FPassing clouds.5 mph91%30.00 "Hg14 mi
1:00 AM61 °FOvercast.5 mph90%30.00 "Hg18 mi
12:00 AM61 °FOvercast.5 mph90%30.00 "Hg16 mi
10:00 PM
Wed, Sep 2
64 °FOvercast.3 mph84%29.99 "Hg17 mi
9:00 PM63 °FPassing clouds.N/A83%29.98 "Hg25 mi
8:00 PM64 °FOvercast.N/A90%29.96 "Hg25 mi
7:00 PM65 °FHeavy rain. Overcast.N/A82%29.97 "Hg4 mi
Weather by CustomWeather, © 2015

See weather overviewHow to use our weather pages